TimeMST,TemperatureF,Dew PointF,Humidity,Sea Level PressureIn,VisibilityMPH,Wind Direction,Wind SpeedMPH,Gust SpeedMPH,PrecipitationIn,Events,Conditions,WindDirDegrees,DateUTC
12:10 AM,3.2,1.4,92,30.17,0.5,Calm,Calm,-,N/A,Fog,Light Freezing Fog,0,2013-01-15 07:10:00
12:20 AM,1.4,-0.4,92,30.16,1.0,Calm,Calm,-,N/A,,Mist,0,2013-01-15 07:20:00
12:27 AM,1.4,-2.2,85,30.17,2.0,Calm,Calm,-,N/A,,Clear,0,2013-01-15 07:27:00
12:35 AM,1.4,-0.4,92,30.16,5.0,Calm,Calm,-,N/A,,Clear,0,2013-01-15 07:35:00
12:53 AM,-0.0,-4.0,83,30.35,7.0,WNW,3.5,-,N/A,,Mostly Cloudy,290,2013-01-15 07:53:00
1:53 AM,9.0,5.0,84,30.33,10.0,NW,5.8,-,N/A,,Overcast,310,2013-01-15 08:53:00
2:53 AM,6.1,1.9,83,30.33,10.0,WNW,3.5,-,N/A,,Overcast,290,2013-01-15 09:53:00
3:53 AM,3.2,-0.4,85,30.15,10.0,West,9.2,-,N/A,,Clear,280,2013-01-15 10:53:00
4:53 AM,1.9,-2.0,83,30.33,10.0,West,8.1,-,N/A,,Clear,270,2013-01-15 11:53:00
5:53 AM,-2.0,-6.0,83,30.35,10.0,SW,4.6,-,N/A,,Clear,230,2013-01-15 12:53:00
6:53 AM,-2.0,-7.1,79,30.33,10.0,West,8.1,-,N/A,,Clear,260,2013-01-15 13:53:00
7:53 AM,-2.0,-6.0,83,30.35,9.0,West,5.8,-,N/A,,Clear,260,2013-01-15 14:53:00
8:53 AM,5.0,-0.0,80,30.34,8.0,West,6.9,-,N/A,,Clear,270,2013-01-15 15:53:00
9:53 AM,12.0,3.0,67,30.32,10.0,West,9.2,-,N/A,,Clear,270,2013-01-15 16:53:00
10:53 AM,17.1,7.0,65,30.30,10.0,West,9.2,-,N/A,,Clear,260,2013-01-15 17:53:00
11:53 AM,21.9,10.0,60,30.25,10.0,West,10.4,-,N/A,,Clear,260,2013-01-15 18:53:00
12:53 PM,26.1,10.9,53,30.23,10.0,West,12.7,-,N/A,,Clear,280,2013-01-15 19:53:00
1:53 PM,27.0,12.9,56,30.19,10.0,WNW,12.7,-,N/A,,Overcast,290,2013-01-15 20:53:00
2:53 PM,28.0,14.0,56,30.20,10.0,West,13.8,-,N/A,,Overcast,280,2013-01-15 21:53:00
3:53 PM,27.0,14.0,58,30.20,10.0,West,12.7,-,N/A,,Clear,270,2013-01-15 22:53:00
4:53 PM,21.9,14.0,72,30.21,10.0,West,6.9,-,N/A,,Clear,260,2013-01-15 23:53:00
5:53 PM,19.0,12.0,74,30.24,10.0,WSW,8.1,-,N/A,,Clear,250,2013-01-16 00:53:00
6:53 PM,19.0,12.0,74,30.23,10.0,WSW,6.9,-,N/A,,Mostly Cloudy,240,2013-01-16 01:53:00
7:53 PM,19.9,14.0,78,30.22,10.0,West,8.1,-,N/A,,Mostly Cloudy,260,2013-01-16 02:53:00
8:53 PM,28.0,19.0,69,30.17,10.0,WNW,13.8,-,N/A,,Overcast,290,2013-01-16 03:53:00
9:53 PM,28.9,21.9,75,30.14,10.0,WNW,11.5,-,N/A,,Overcast,290,2013-01-16 04:53:00
10:53 PM,30.2,21.2,69,30.01,10.0,WNW,12.7,-,N/A,,Overcast,290,2013-01-16 05:53:00
11:53 PM,32.0,21.9,66,30.10,10.0,WNW,13.8,-,N/A,,Overcast,300,2013-01-16 06:53:00